{"data":{"norad_id":67218,"epoch":"2026-09-19T18:00:50.615712Z","epoch_age_seconds":140119,"freshness":"FRESH","line1":"1 67218U 25304AC  26262.75058583 -.00000428  00000+0 -28043-4 0  9993","line2":"2 67218  70.0014  45.1322 0003178 271.8646  88.2149 14.98321730 42925","mean_motion":14.9832173,"eccentricity":0.0003178,"inclination_deg":70.0014,"raan_deg":45.1322,"arg_perigee_deg":271.8646,"mean_anomaly_deg":88.2149,"bstar":-2.8043e-5,"rev_number":4292,"period_min":96.107529589122,"perigee_km":569.87268592656,"apogee_km":574.29024478314,"semimajor_km":6950.2184653549,"source":"CELESTRAK","updated_at":"2026-09-20T09:00:43.501497Z"}}